パンスターズ彗星

P/2016 BA14 ( PanSTARRS ) 2021

English version
Home page
Updated on February 21, 2021

---------------------------------------------------------------------

・ プロフィール

・ 軌道要素

Epoch 2021 July 5.0 TT = JDT 2459400.5
T 2021 June 17.32229 TT                                 MPCW
q   1.0128244            (2000.0)            P               Q
n   0.18731202     Peri.  351.88801     -0.99117922     -0.13249492
a   3.0252338      Node   180.52654     +0.13231243     -0.98803376
e   0.6652079      Incl.   18.89377     +0.00756187     -0.07895818
P   5.26
From 1792 observations 2015 Dec. 1-2016 Oct. 9, mean residual 0".4.

・ 光度変化

        H = 19.0  G = 0.15

---------------------------------------------------------------------

軌道要素はM.P.E.C. 2016-U66に掲載されたものです。
光度グラフはComet for Windowsで作成したものです。

---------------------------------------------------------------------

Copyright(C) Seiichi Yoshida (comet@aerith.net). All rights reserved.